LogoCoinalyze
    Ad-Free Version ホーム マーケット一覧 資金調達率一覧
    先物データ
    • 集計データ (コイン一覧)
    • 個別チャート
    • 全体チャート
    アラート
    TA
    Bitcoin Ethereum BNB Ripple Tron ZCash Dogecoin Monero Chainlink UNUS SED LEO Cardano Stellar Lumens Bitcoin Cash Litecoin Hedera Cronos Polkadot Ethereum Classic Algorand Cosmos Quant Dash VeChain Bitcoin SV BitTorrent Terra Decred Tezos Iota The Graph THETA Decentraland NEO Chiliz MultiversX Horizen Golem Basic Attention Token Qtum DigiByte 0x Beam RIF Token FTX Token FUNToken Holo Ontology Zilliqa Enjin Coin Nano Ravencoin aelf Mask Network Verge Siacoin Status WINk Waves IoTeX Power Ledger iExec RLC Steem Kyber Network Crystal Lisk Ark Ardor IOST WOO Network WAX Icon Storj Wanchain Loopring Bitcoin Diamond AdEx Bitcoin Gold Augur OmiseGO NEM MonaCoin BitShares Ren Komodo V Systems Nuls Mithril SOLVE Maker EOS Aion Nebulas HedgeTrade Bread Fetch.ai TomoChain Polygon Fantom Waltonchain GXChain Bytom Metaverse ETP MaidSafeCoin QASH
    注文する:
    その他
    • API
    • ローソク足パターン
    • 寄付する
    • お問い合わせ
    • サイトマップ
    • Privacy Policy
    • Disclaimer
    • Theme:
    日本語
    • English
    • Français
    • Русский
    • Deutsch
    • Türkçe
    • Nederlands
    • Português (BR)
    • Español
    • 한국어
    • 简体中文
     
    ログイン / サインアップ
    Markets/ Pepe/ PEPE to USD/ PEPEUSD Kraken
    Trades
    WL
    チャット
    統計
    ニュース
    ⦷
    AAA
    0.000003639 665494.00000000 07:46:42
    0.000003639 215448752.82104000 07:45:30
    0.000003640 118325423.58790000 07:45:30
    0.000003641 18014812.65185000 07:45:29
    0.000003641 24275110.78744000 07:45:29
    0.000003641 50883695.11095000 07:45:29
    0.000003641 27464982.14776000 07:45:29
    0.000003641 407153538.49000001 07:45:29
    0.000003641 10250500.00000000 07:45:29
    0.000003641 127680870.94000000 07:45:29
    0.000003641 7638429.06000000 07:45:29
    0.000003643 205839462.40827000 07:45:29
    0.000003641 351539.00000000 07:44:04
    0.000003644 413838.55000000 07:43:21
    0.000003643 10944221.79000000 07:42:47
    0.000003643 17784106.50000000 07:42:34
    0.000003643 1631786.98000000 07:41:00
    0.000003638 225000000.00000000 07:39:56
    0.000003638 152671761.79220000 07:39:56
    0.000003638 34359538.20780000 07:39:56
    0.000003637 27212819.70000000 07:39:40
    0.000003637 37968700.00000000 07:39:40
    0.000003638 22888685.00000000 07:37:18
    0.000003638 7638429.06000000 07:37:15
    0.000003639 376514.00000000 07:37:05
    0.000003644 8264901.20000000 07:35:52
    0.000003642 418568.00000000 07:34:04
    0.000003642 1376857.00000000 07:31:45
    0.000003643 288929.00000000 07:31:06
    0.000003646 1176604.49000000 07:30:59
    0.000003646 2715551.28000000 07:30:46
    0.000003644 128910537.87047000 07:28:52
    0.000003639 50662136.54002000 07:24:50
    0.000003639 121546996.19454999 07:24:50
    0.000003639 93243766.63939001 07:24:50
    0.000003639 7015205.45783000 07:24:50
    0.000003639 7638429.06000000 07:24:50
    0.000003639 37968700.00000000 07:24:50
    0.000003640 37968700.00000000 07:24:50
    0.000003641 37968700.00000000 07:24:50
    0.000003641 205987366.10821000 07:24:50
    0.000003641 1536545.85000000 07:24:04
    0.000003644 167413147.63995999 07:23:50
    0.000003644 37968700.00000000 07:23:50
    0.000003643 7015205.45783000 07:23:50
    0.000003643 158998521.31375000 07:23:50
    0.000003643 176569948.00000000 07:23:50
    0.000003643 37385330.08000000 07:23:50
    0.000003642 2745951.92999000 07:23:50
    0.000003642 161586564.61577001 07:23:50
    0.000003642 37968700.00000000 07:23:50
    0.000003641 37968700.00000000 07:23:50
    0.000003639 516597.96000000 07:23:24
    0.000003639 430996513.85000002 07:23:14
    0.000003637 2874038.00000000 07:22:09
    0.000003637 5849433.00000000 07:22:02
    0.000003643 583369.92000000 07:20:58
    0.000003643 6628594.95000000 07:20:58
    0.000003644 37968700.00000000 07:20:47
    0.000003638 1529054.42000000 07:19:05
    0.000003640 608975.32000000 07:18:28
    0.000003634 26426038.00000000 07:16:24
    0.000003645 9275454.27217000 07:14:33
    0.000003645 7015205.45783000 07:14:33
    0.000003645 37968700.00000000 07:14:33
    0.000003643 288566.00000000 07:12:45
    0.000003643 320020.60000000 07:12:41
    0.000003643 37968700.00000000 07:12:06
    0.000003645 205761316.87242001 07:12:05
    0.000003645 37968700.00000000 07:12:05
    0.000003641 992268.00000000 07:10:57
    0.000003644 1339006.31000000 07:10:10
    0.000003640 114232013.80000000 07:08:45
    0.000003640 253440400.00000000 07:08:45
    0.000003640 225000000.00000000 07:08:45
    0.000003642 851165.98000000 07:08:14
    0.000003642 680231.00000000 07:08:12
    0.000003644 607728.00000000 07:07:57
    0.000003642 2743066.15999000 07:07:03
    0.000003642 44637253.20500000 07:07:03
    0.000003639 1121457.00000000 07:05:32
    0.000003641 18939900.00000000 07:01:37
    0.000003640 21604696.51000000 07:01:08
    0.000003638 2935025.31771000 07:00:13
    0.000003637 779159.00000000 06:59:45
    0.000003635 1136394.00000000 06:59:00
    0.000003634 344924.00000000 06:58:44
    0.000003635 2933411.55764000 06:58:31
    0.000003634 823455.00000000 06:58:20
    0.000003634 490278.00000000 06:58:15
    0.000003635 2683933.97000000 06:57:50
    0.000003634 480101.00000000 06:57:49
    0.000003638 1010283.20000000 06:56:00
    0.000003636 335594.00000000 06:55:51
    0.000003639 5361967.57000000 06:55:46
    0.000003638 531317.01000000 06:55:32
    0.000003634 6655008.00000000 06:52:36
    0.000003635 6138758.00000000 06:49:37
    0.000003634 1331233.00000000 06:46:37
    0.000003637 439154.00000000 06:45:09
    ログアウト
    AAA
    ヘルプ
    🙂 🤣 😎 🤗 😛 😉 😜 🤑 🤔 😑 😴 😕 🙃 😲 😇 🙁 😢 😬 😟 😠 🕺 🏃 💪 ✌ 👌 👍 👎 👏 👋 🤝 🍺 🍻 🐋 🐟 🦈 🗽 🚄 ✈ 🛑 🚀 🏦 🌚 ⭐ 🌞 ⚡ 🏆 💰 💲 🔨 ❓ ❗ 💯 🔶 🏁
    ☺
    ログイン または サインアップ してチャット
    24時間
    変化
    +4.93%
    出来高
    980,580,926,818
    最高値
    0.000003876
    最安値
    0.000003439
    7日間
    変化
    -6.57%
    出来高
    3,593,258,198,328
    最高値
    0.000003966
    最安値
    0.000003363
    30日間
    変化
    +26.18%
    出来高
    15,493,537,475,977
    最高値
    0.000004550
    最安値
    0.000002530
    DOGE, SHIB, PEPE, or Something Else: Which Meme Coin Can Make History in September? (3 AIs Weigh In)
    "DOGE remains the most likely to record the largest move in dollar terms and lead the entire sector," ChatGPT stated.
    cryptopotato.com
    Sept 3, 2026 00:41
    Pepe price rallies 25% as whale demand and futures interest surge
    Key takeaways Pepe has gained 25% this week, including a combined 22% advance over the previous two days. Seven whale transactions worth more than $1 million each occurred Thursday, the highest...
    coinjournal.net
    Aug 21, 2026 08:41
    PEPE Supply on Exchanges Just Took a Massive Hit – What’s Next?
    A drop in PEPE exchange balances has added to bullish expectations despite muted trader interest.
    cryptopotato.com
    Aug 6, 2026 20:02
    PEPE Exchange Outflows Hit Nearly 2-Year High as Whales Accumulate
    Pepe (PEPE) recorded its largest single-day exchange outflow since November 2024, with 4.54 trillion tokens leaving trading platforms, signaling that holders are moving supply away from immediate...
    beincrypto.com
    Aug 6, 2026 04:57
    Meme Coin Based on White House Shooter Conspiracy Rallies 320%
    $HENRY surged 300% after a 2023 Pepe tweet appeared to name the White House shooter, fueling a viral time-travel meme. The post Meme Coin Based on White House Shooter Conspiracy Rallies 320%...
    beincrypto.com
    Apr 27, 2026 16:11
    PEPE surges 4% as market sentiment improves, eyes Key resistance breakout
    Key takeaways Pepe extends gains on Wednesday, stretching its rally from the 50-day EMA. Derivatives data show heightened retail activity as risk-on sentiment returns to the market. Pepe (PEPE) is...
    coinjournal.net
    Apr 22, 2026 11:44
    Why The PEPE Price Could Stage A 55X Rally To Reach New $0.0001 ATH
    The PEPE price has now started to edge back into bullish conversations after the recent inflows into the crypto market. The last time PEPE’s weekly chart printed the kind of structure now...
    newsbtc.com
    Apr 21, 2026 15:30
    Pepe (PEPE) surges 9%, drawing interest from whales
    Key takeaways PEPE is up 9% in the last 24 hours, making it one of the best performers among the top 50 cryptocurrencies by market cap. The rally comes amid renewed interest from whales and retail...
    coinjournal.net
    Apr 16, 2026 07:40
    Murad Says SPX6900 (SPX) Is Primed for a Rally — Is He Right This Time?
    Crypto influencer Murad Mahmudov claims SPX6900 (SPX) is stabilizing at the same market cap level where Dogecoin (DOGE) and Pepe (PEPE) consolidated before their explosive rallies. The...
    beincrypto.com
    Apr 5, 2026 21:36
    The Shiba Inu Of This Cycle: Analyst Shares Why It Is Better To Buy PEPE Now
    In the bull market cycle of 2021-2022, the Shiba Inu meme coin made waves in a way that changed the face of meme coins forever. This came after Dogecoin’s initial 36,000% rally, and Shiba Inu...
    newsbtc.com
    Apr 4, 2026 07:30
    PEPE Explodes by 18% Amid Altcoin Rally, BTC Tapped $74K: Market Watch
    The frog-themed meme coin is today's biggest gainer, followed by TAO, DOT, and BONK.
    cryptopotato.com
    Mar 16, 2026 10:56
    Should PEPE traders brace for volatility as short squeeze potential builds?
    The memecoin market has seen its collective market capitalization drop by 48% over the past year, and 6.9% over the past month, according to CoinMarketCap. According to Glassnode, the memecoin...
    ambcrypto.com
    Mar 7, 2026 18:00
    チャットでコマンドを入力するだけです。 nick1を実際のニックネームに置き換えてください
    • /ignore nick1 チャットユーザーを無視する
    • /unignore nick1 チャットユーザーを無視しない
    • /ignorelist 無視したチャットユーザーを表示する